[[{"header":{"parameterUnit":"m.s-1","parameterCategory":1,"la1":30.2991,"la2":30.254,"lo1":-89.0895,"lo2":-89.0444,"dy":0.0017,"dx":0.0017,"nx":28,"ny":28,"refTime":"2023-03-30T15:00:00:Z","depth":0,"parameterNumber":2,"parameterNumberName":"U-component_of_WINDS"},"data":[0,0,0,0,0,0,0,0,0,0,0,0,0,0,0,0,0,0,0,0,0,0,0,0,0,0,0,0,0,0,0,0,0,0,0,0,0,0,0,0,0,0,0,0,0,0,0,0,0,0,0,0,0,0,0,0,0,0,-2.6338,-2.6338,0,-2.6386,-2.6387,-2.6387,-2.6391,-2.639,-2.639,-2.6389,-2.6438,-2.644,-2.6442,0,0,0,0,0,0,0,0,0,0,0,0,0,-2.6247,-2.6248,-2.6337,-2.6338,-2.6339,-2.6386,-2.6387,-2.6388,-2.6391,-2.639,-2.6389,-2.6389,-2.6438,-2.644,-2.6442,0,0,0,0,0,0,0,0,0,0,0,0,0,-2.629,-2.6249,-2.6337,-2.6346,-2.6347,-2.6386,-2.6387,-2.6388,-2.6391,-2.639,-2.6389,-2.6389,-2.6437,-2.6439,-2.6442,-2.6475,0,0,-2.645,-2.6452,0,0,0,0,0,0,0,0,-2.6287,-2.6293,-2.6344,-2.6346,-2.6347,-2.6382,-2.6373,-2.6417,-2.6391,-2.6374,-2.6389,-2.6388,-2.642,-2.6424,-2.6435,-2.6478,-2.648,-2.6451,-2.6452,-2.6454,-2.6454,0,0,0,0,0,0,0,-2.6284,-2.6291,-2.6357,-2.6345,-2.6347,-2.6347,-2.6353,-2.6381,-2.6401,-2.6376,-2.6376,-2.6382,-2.6421,-2.6432,-2.6436,-2.648,-2.6451,-2.6453,-2.6455,-2.6456,-2.6552,-2.6553,0,0,0,0,0,0,-2.628,-2.6288,-2.6355,-2.6358,-2.6315,-2.635,-2.6356,-2.6371,-2.6401,-2.6405,-2.6383,-2.6382,-2.6428,-2.6433,-2.6438,-2.6478,-2.6453,-2.6456,-2.6458,-2.6551,-2.6553,-2.6554,0,0,0,0,0,0,-2.6278,-2.6286,-2.6353,-2.6324,-2.6332,-2.6352,-2.637,-2.6373,-2.6384,-2.6406,-2.6409,-2.6391,-2.6428,-2.6434,-2.6466,-2.648,-2.6457,-2.646,-2.655,-2.6552,-2.6553,-2.6559,0,0,0,0,0,0,-2.6275,-2.6285,-2.6298,-2.6324,-2.6334,-2.6381,-2.6371,-2.6374,-2.6389,-2.6389,-2.6415,-2.6418,-2.6427,-2.6462,-2.6469,-2.6483,-2.6462,-2.6549,-2.6551,-2.6553,-2.6557,-2.656,-2.6562,0,0,0,0,0,-2.6272,-2.6297,-2.6298,-2.6306,-2.635,-2.6382,-2.6387,-2.6398,-2.639,-2.6403,-2.6417,-2.6417,-2.6477,-2.6465,-2.6473,-2.6488,-2.6548,-2.655,-2.6552,-2.6556,-2.6559,-2.6562,0,0,0,0,0,0,-2.6272,-2.6301,-2.6302,-2.6337,-2.6357,-2.6382,-2.6399,-2.6401,-2.6423,-2.6421,-2.6433,-2.6439,-2.647,-2.6483,-2.6469,-2.6522,-2.6512,-2.6516,-2.6512,-2.6515,-2.6518,-2.6514,-2.6464,0,0,0,0,0,-2.6276,-2.6299,-2.6323,-2.6352,-2.6362,-2.6378,-2.6392,-2.6399,-2.642,-2.6428,-2.6444,-2.6464,-2.6487,-2.6502,-2.6525,-2.656,-2.6565,-2.6574,-2.6577,-2.6579,-2.6581,-2.66,-2.6604,-2.656,-2.656,-2.656,0,0,-2.6285,-2.6304,-2.6317,-2.6352,-2.6368,-2.6391,-2.6385,-2.641,-2.6428,-2.6432,-2.6462,-2.6475,-2.6498,-2.6531,-2.6547,-2.6543,-2.6595,-2.6581,-2.6583,-2.6584,-2.6602,-2.6606,-2.661,-2.6562,-2.6562,-2.6561,0,0,-2.6312,-2.6329,-2.6354,-2.6371,-2.6395,-2.6406,-2.6412,-2.6437,-2.6446,-2.6477,-2.6481,-2.6501,-2.6542,-2.6558,-2.6571,-2.6605,-2.6606,-2.6612,-2.6625,-2.6643,-2.6646,-2.665,-2.6661,-2.6665,-2.6615,-2.6615,-2.6615,0,-2.632,-2.6355,-2.6367,-2.6392,-2.6407,-2.6412,-2.6437,-2.6452,-2.6483,-2.6493,-2.6488,-2.6538,-2.6554,-2.6591,-2.6599,-2.6611,-2.6617,-2.6609,-2.6645,-2.6648,-2.6651,-2.6662,-2.6666,-2.6616,-2.6616,-2.6616,-2.6616,0,-2.6363,-2.6387,-2.6405,-2.6434,-2.6451,-2.6476,-2.6491,-2.6507,-2.6512,-2.6524,-2.6556,-2.6575,-2.6602,-2.6611,-2.6617,-2.6649,-2.6645,-2.6643,-2.6633,-2.6656,-2.6666,-2.667,-2.6617,-2.6616,-2.6616,-2.6616,0,0,-2.639,-2.6426,-2.6432,-2.6446,-2.6473,-2.6492,-2.6518,-2.6544,-2.6557,-2.6578,-2.6599,-2.6633,-2.6631,-2.6646,-2.6654,-2.667,-2.6694,-2.6665,-2.6666,-2.6669,-2.673,-2.6731,-2.6735,-2.6696,-2.6696,-2.6697,-2.6727,0,-2.642,-2.6465,-2.6476,-2.6514,-2.6537,-2.6542,-2.6564,-2.6584,-2.6595,-2.6616,-2.6629,-2.6653,-2.6649,-2.6658,-2.6674,-2.6688,-2.6706,-2.6686,-2.6714,-2.6715,-2.6707,-2.6741,-2.6742,-2.6769,-2.6732,-2.6732,-2.6733,0,-2.646,-2.6482,-2.6522,-2.6547,-2.6557,-2.6576,-2.6601,-2.6621,-2.6643,-2.6651,-2.6668,-2.6674,-2.67,-2.669,-2.6726,-2.6712,-2.6724,-2.6733,-2.6734,-2.6736,-2.6724,-2.6742,-2.6778,-2.6782,-2.674,-2.6739,-2.6739,0,-2.6475,-2.6515,-2.6544,-2.6555,-2.6585,-2.6598,-2.6611,-2.6633,-2.6648,-2.6669,-2.6679,-2.6704,-2.6717,-2.6736,-2.6748,-2.674,-2.6782,-2.6774,-2.6789,-2.6788,-2.6796,-2.6795,-2.6833,-2.6806,-2.6806,-2.6806,-2.6806,0,-2.6506,-2.653,-2.6551,-2.6569,-2.6596,-2.6609,-2.6635,-2.6649,-2.6667,-2.6688,-2.6695,-2.6713,-2.6729,-2.675,-2.676,-2.6787,-2.6794,-2.68,-2.6802,-2.6798,-2.6797,-2.6806,-2.6803,-2.6807,-2.6807,-2.6807,-2.6807,0,-2.6526,-2.6541,-2.6573,-2.6599,-2.6606,-2.6625,-2.6647,-2.6664,-2.6676,-2.6702,-2.6709,-2.6728,-2.6753,-2.6767,-2.6799,-2.6805,-2.6835,-2.6837,-2.6828,-2.6829,-2.6842,-2.684,-2.6886,-2.6892,-2.6862,-2.6862,-2.6863,0,-2.6545,-2.6563,-2.6591,-2.6605,-2.6618,-2.6641,-2.6656,-2.667,-2.6685,-2.6712,-2.6726,-2.6751,-2.6772,-2.6812,-2.6828,-2.6852,-2.6854,-2.6869,-2.6858,-2.6853,-2.6853,-2.6851,-2.6853,-2.687,-2.687,-2.687,-2.6871,0,-2.6575,-2.6581,-2.6603,-2.6628,-2.6646,-2.6666,-2.6686,-2.6697,-2.6714,-2.6731,-2.6757,-2.6773,-2.6805,-2.683,-2.6855,-2.6869,-2.6872,-2.6874,-2.6879,-2.6874,-2.6868,-2.687,-2.6832,-2.6873,-2.6872,-2.6872,-2.6872,-2.6872,-2.6594,-2.6611,-2.6633,-2.6657,-2.6673,-2.6691,-2.6709,-2.6723,-2.6745,-2.6772,-2.6779,-2.6806,-2.6827,-2.6862,-2.6876,-2.6897,-2.6894,-2.6901,-2.6902,-2.6903,-2.6903,-2.6866,-2.6901,-2.6901,-2.6901,-2.6901,-2.6901,0,-2.6624,-2.6638,-2.666,-2.6688,-2.6706,-2.6709,-2.6731,-2.6746,-2.677,-2.679,-2.681,-2.6839,-2.6864,-2.6882,-2.6907,-2.692,-2.6922,-2.6926,-2.6925,-2.6927,-2.6905,-2.6898,-2.6924,-2.6924,-2.6924,-2.6924,-2.6924,-2.6924,-2.6641,-2.6669,-2.6678,-2.6715,-2.6729,-2.6755,-2.6767,-2.6784,-2.68,-2.6832,-2.6853,-2.6865,-2.6884,-2.691,-2.6932,-2.6937,-2.6946,-2.6949,-2.6954,-2.6932,-2.6929,-2.6927,-2.692,-2.6951,-2.6951,-2.6975,-2.6975,-2.6975]},{"header":{"parameterUnit":"m.s-1","parameterCategory":1,"la1":30.2991,"la2":30.254,"lo1":-89.0895,"lo2":-89.0444,"dy":0.0017,"dx":0.0017,"nx":28,"ny":28,"refTime":"2023-03-30T15:00:00:Z","depth":0,"parameterNumber":3,"parameterNumberName":"V-component_of_WINDS"},"data":[0,0,0,0,0,0,0,0,0,0,0,0,0,0,0,0,0,0,0,0,0,0,0,0,0,0,0,0,0,0,0,0,0,0,0,0,0,0,0,0,0,0,0,0,0,0,0,0,0,0,0,0,0,0,0,0,0,0,5.1385,5.1386,0,5.1479,5.148,5.1481,5.1455,5.1453,5.1451,5.1449,5.1543,5.1547,5.1551,0,0,0,0,0,0,0,0,0,0,0,0,0,5.1179,5.1183,5.1384,5.1386,5.1387,5.1479,5.148,5.1482,5.1455,5.1453,5.145,5.1448,5.1542,5.1547,5.1552,0,0,0,0,0,0,0,0,0,0,0,0,0,5.127,5.1184,5.1384,5.1385,5.1386,5.1479,5.148,5.1482,5.1455,5.1452,5.145,5.1447,5.154,5.1546,5.1553,5.165,0,0,5.1572,5.1575,0,0,0,0,0,0,0,0,5.1265,5.1278,5.1383,5.1385,5.1386,5.1452,5.1442,5.1538,5.1456,5.1429,5.1449,5.1445,5.1515,5.1523,5.1547,5.1655,5.1659,5.1573,5.1577,5.158,5.1581,0,0,0,0,0,0,0,5.1259,5.1274,5.1422,5.1385,5.1387,5.138,5.1389,5.146,5.1487,5.1431,5.1429,5.1441,5.1515,5.1541,5.1549,5.166,5.1573,5.1578,5.1582,5.1585,5.1854,5.1857,0,0,0,0,0,0,5.1252,5.1269,5.1419,5.1425,5.1317,5.1386,5.1397,5.1434,5.1486,5.1491,5.1443,5.1439,5.1532,5.1542,5.1552,5.1671,5.1579,5.1585,5.1589,5.185,5.1854,5.1858,0,0,0,0,0,0,5.1248,5.1266,5.1415,5.1346,5.1365,5.1392,5.1434,5.1437,5.1463,5.1495,5.15,5.1465,5.153,5.1543,5.1627,5.1674,5.1588,5.1594,5.1846,5.1852,5.1856,5.1909,0,0,0,0,0,0,5.1242,5.1264,5.1302,5.1347,5.1369,5.1488,5.1437,5.1441,5.1475,5.147,5.1517,5.1522,5.1528,5.1617,5.1633,5.1681,5.1599,5.1842,5.1849,5.1855,5.1903,5.1915,5.1925,0,0,0,0,0,5.1235,5.1312,5.1304,5.1322,5.1416,5.1491,5.1503,5.151,5.1479,5.1517,5.1538,5.152,5.1666,5.1626,5.1644,5.1694,5.1839,5.1847,5.1854,5.1898,5.1912,5.1925,0,0,0,0,0,0,5.127,5.1318,5.1309,5.1404,5.1444,5.1486,5.1534,5.1525,5.1573,5.1567,5.1572,5.1583,5.1669,5.169,5.1644,5.1792,5.1748,5.1759,5.1775,5.179,5.18,5.1793,5.1605,0,0,0,0,0,5.1289,5.1346,5.1385,5.1464,5.1485,5.1506,5.1539,5.1541,5.1582,5.1598,5.1625,5.1665,5.172,5.1756,5.1808,5.1906,5.1916,5.195,5.1961,5.197,5.1979,5.2034,5.2049,5.1882,5.1882,5.1882,0,0,5.1328,5.1361,5.1397,5.1472,5.1503,5.1562,5.152,5.1584,5.1628,5.1608,5.1688,5.171,5.1755,5.1846,5.1887,5.1866,5.2028,5.1979,5.1986,5.1991,5.2043,5.2059,5.2073,5.1887,5.1886,5.1885,0,0,5.143,5.1461,5.1531,5.1564,5.1612,5.1626,5.1643,5.1688,5.1701,5.1783,5.1769,5.1821,5.1915,5.1948,5.1977,5.2094,5.208,5.2111,5.2168,5.2221,5.2235,5.2246,5.2288,5.2303,5.212,5.212,5.2121,0,5.1472,5.1561,5.1568,5.1634,5.1667,5.1654,5.1725,5.1756,5.1818,5.1842,5.1817,5.1937,5.1966,5.2065,5.2094,5.2118,5.2137,5.2105,5.2232,5.2244,5.2255,5.2295,5.2311,5.2124,5.2123,5.2123,5.2123,0,5.1611,5.1673,5.1724,5.1786,5.1826,5.1894,5.1911,5.195,5.1949,5.1966,5.205,5.2084,5.2144,5.2168,5.2167,5.2268,5.2253,5.2231,5.2186,5.2274,5.2312,5.2328,5.2129,5.2128,5.2127,5.2126,0,0,5.1736,5.1803,5.1822,5.1851,5.1904,5.1951,5.2019,5.2079,5.2113,5.2156,5.2213,5.2295,5.2275,5.2308,5.2311,5.2357,5.2448,5.2329,5.233,5.235,5.2562,5.2579,5.2597,5.244,5.2443,5.2445,5.2559,0,5.1843,5.1963,5.1972,5.2081,5.2138,5.2127,5.2186,5.2225,5.2243,5.2294,5.2313,5.2371,5.234,5.236,5.2406,5.2427,5.2491,5.2419,5.2493,5.2495,5.2482,5.2616,5.2634,5.2739,5.2573,5.2576,5.2578,0,5.1983,5.2033,5.2148,5.2194,5.2219,5.2272,5.2328,5.2377,5.2421,5.2431,5.2469,5.2466,5.2535,5.2489,5.2585,5.2537,5.2567,5.2583,5.2587,5.2594,5.2542,5.2627,5.2773,5.2789,5.2601,5.2599,5.2597,0,5.2064,5.216,5.2241,5.2266,5.2321,5.2359,5.2384,5.2426,5.2461,5.251,5.2534,5.259,5.262,5.2664,5.2676,5.2641,5.2772,5.2726,5.2782,5.2782,5.2809,5.2807,5.2962,5.2829,5.2829,5.2829,5.2828,0,5.2182,5.2253,5.2278,5.2328,5.2407,5.2417,5.2494,5.2517,5.2554,5.2608,5.2601,5.2652,5.2665,5.2718,5.2728,5.2807,5.282,5.283,5.2832,5.2831,5.283,5.2851,5.2844,5.2833,5.2832,5.2831,5.283,0,5.2285,5.2305,5.2393,5.2439,5.2453,5.2509,5.2548,5.2596,5.2614,5.2682,5.2699,5.2726,5.2789,5.2805,5.2879,5.2886,5.2979,5.2974,5.2964,5.2964,5.3019,5.3014,5.3193,5.3217,5.3068,5.3069,5.307,0,5.2359,5.2414,5.2467,5.2503,5.253,5.2588,5.2625,5.2637,5.2676,5.2731,5.2773,5.2835,5.2885,5.2985,5.3011,5.3068,5.3064,5.3123,5.3073,5.307,5.3066,5.3062,5.3068,5.3133,5.3134,5.3135,5.3136,0,5.2489,5.2497,5.2551,5.2609,5.2654,5.27,5.2744,5.2774,5.2792,5.2836,5.29,5.2939,5.3016,5.3078,5.3136,5.3161,5.3152,5.3152,5.3168,5.3168,5.316,5.3166,5.2991,5.3148,5.3147,5.3146,5.3145,5.3145,5.258,5.2629,5.2674,5.2735,5.2769,5.2811,5.2859,5.2883,5.2938,5.3002,5.3006,5.3076,5.3119,5.3197,5.3225,5.328,5.3262,5.3285,5.3291,5.3297,5.3302,5.3152,5.3291,5.329,5.329,5.329,5.329,0,5.271,5.2739,5.2795,5.2858,5.2906,5.2895,5.2943,5.2984,5.3046,5.3088,5.3138,5.3213,5.3273,5.3304,5.3364,5.3402,5.34,5.3417,5.3415,5.3421,5.3314,5.3294,5.3419,5.3418,5.3418,5.3418,5.3418,5.3418,5.2783,5.2865,5.2878,5.2977,5.3005,5.3074,5.3103,5.3142,5.3176,5.326,5.331,5.3331,5.3369,5.3432,5.3486,5.3494,5.3516,5.3536,5.3542,5.3441,5.3428,5.3416,5.3397,5.3541,5.3541,5.3644,5.3645,5.3646]}]]